| time (UTC) | temp F | wind direction | speed MPH | gust MPH | rain 1hr in | rain 24hr in | rain mn in | humidity % | barometer mb |
| 20260904101552 | 69 | 0 | 0.0 | 3.0 | 0.00 | 0.08 | 0.02 | 91 | 1015.3 |
| 20260904100050 | 70 | 0 | 0.0 | 4.0 | 0.00 | 0.08 | 0.02 | 90 | 1015.3 |
| 20260904094600 | 70 | 0 | 0.0 | 7.0 | 0.00 | 0.08 | 0.02 | 89 | 1015.2 |
| 20260904093103 | 70 | 28 | 3.0 | 9.0 | 0.00 | 0.08 | 0.02 | 89 | 1015.4 |
| 20260904091550 | 70 | 22 | 3.0 | 10.0 | 0.00 | 0.08 | 0.02 | 87 | 1015.2 |
| 20260904090046 | 70 | 17 | 3.0 | 7.0 | 0.00 | 0.08 | 0.02 | 88 | 1015.0 |
| 20260904084552 | 70 | 23 | 2.0 | 9.0 | 0.00 | 0.08 | 0.02 | 89 | 1014.7 |
| 20260904083053 | 70 | 24 | 2.0 | 13.0 | 0.00 | 0.08 | 0.02 | 90 | 1015.0 |
| 20260904081547 | 69 | 13 | 3.0 | 12.0 | 0.01 | 0.08 | 0.02 | 92 | 1015.0 |
| 20260904080056 | 69 | 34 | 0.0 | 2.0 | 0.01 | 0.08 | 0.02 | 91 | 1014.4 |
| 20260904074551 | 69 | 0 | 0.0 | 2.0 | 0.01 | 0.08 | 0.02 | 91 | 1014.0 |
| 20260904073051 | 69 | 0 | 0.0 | 3.0 | 0.01 | 0.08 | 0.02 | 90 | 1014.2 |
| 20260904071547 | 70 | 0 | 0.0 | 5.0 | 0.00 | 0.07 | 0.01 | 89 | 1014.2 |
| 20260904070100 | 70 | 25 | 3.0 | 5.0 | 0.00 | 0.07 | 0.01 | 89 | 1014.1 |
| 20260904064552 | 70 | 0 | 2.0 | 8.0 | 0.00 | 0.07 | 0.01 | 89 | 1014.1 |
| 20260904063051 | 70 | 25 | 2.0 | 12.0 | 0.00 | 0.07 | 0.01 | 88 | 1014.0 |
| 20260904061546 | 70 | 29 | 5.0 | 16.0 | 0.00 | 0.07 | 0.01 | 89 | 1013.8 |
| 20260904060056 | 70 | 32 | 3.0 | 9.0 | 0.00 | 0.07 | 0.01 | 91 | 1014.1 |
| 20260904054554 | 69 | 22 | 3.0 | 8.0 | 0.00 | 0.07 | 0.01 | 92 | 1014.1 |
| 20260904053052 | 69 | 0 | 0.0 | 5.0 | 0.00 | 0.07 | 0.01 | 92 | 1014.6 |
| 20260904051551 | 69 | 31 | 1.0 | 8.0 | 0.00 | 0.07 | 0.01 | 91 | 1015.1 |
| 20260904050056 | 69 | 24 | 2.0 | 6.0 | 0.01 | 0.07 | 0.01 | 91 | 1015.5 |
| 20260904044557 | 69 | 29 | 2.0 | 8.0 | 0.01 | 0.07 | 0.01 | 92 | 1015.8 |
| 20260904043100 | 69 | 31 | 3.0 | 11.0 | 0.01 | 0.07 | 0.01 | 92 | 1016.1 |
| 20260904041556 | 69 | 34 | 3.0 | 8.0 | 0.01 | 0.07 | 0.01 | 93 | 1016.3 |
| 20260904034600 | 69 | 28 | 2.0 | 11.0 | 0.00 | 0.06 | 0.06 | 92 | 1016.3 |
| 20260904033058 | 69 | 40 | 4.0 | 10.0 | 0.00 | 0.06 | 0.06 | 92 | 1016.7 |
| 20260904031553 | 69 | 31 | 4.0 | 6.0 | 0.00 | 0.06 | 0.06 | 92 | 1016.0 |
| 20260904030056 | 69 | 0 | 1.0 | 5.0 | 0.00 | 0.06 | 0.06 | 91 | 1017.4 |
| 20260904024554 | 69 | 201 | 3.0 | 10.0 | 0.00 | 0.06 | 0.06 | 89 | 1017.6 |
| 20260904023102 | 70 | 142 | 1.0 | 7.0 | 0.00 | 0.06 | 0.06 | 89 | 1017.4 |
| 20260904021601 | 71 | 161 | 6.0 | 18.0 | 0.00 | 0.06 | 0.06 | 86 | 1017.9 |
| 20260904020053 | 71 | 159 | 2.0 | 6.0 | 0.00 | 0.06 | 0.06 | 90 | 1017.5 |
| 20260904014607 | 72 | 263 | 0.0 | 2.0 | 0.01 | 0.06 | 0.06 | 87 | 1016.4 |
| 20260904013051 | 73 | 267 | 0.0 | 3.0 | 0.01 | 0.06 | 0.06 | 86 | 1016.2 |
| 20260904011601 | 74 | 70 | 3.0 | 8.0 | 0.01 | 0.06 | 0.06 | 80 | 1016.4 |
| 20260904010057 | 80 | 37 | 9.0 | 21.0 | 0.01 | 0.06 | 0.06 | 68 | 1015.7 |
| 20260904004553 | 81 | 249 | 2.0 | 7.0 | 0.00 | 0.06 | 0.05 | 80 | 1014.8 |
| 20260904003104 | 81 | 185 | 2.0 | 5.0 | 0.00 | 0.06 | 0.05 | 83 | 1014.8 |
| 20260904001558 | 81 | 0 | 0.0 | 3.0 | 0.00 | 0.06 | 0.05 | 81 | 1014.3 |
| 20260904000119 | 82 | 215 | 0.0 | 3.0 | 0.00 | 0.06 | 0.05 | 80 | 1014.4 |
| 20260903234552 | 83 | 0 | 0.0 | 2.0 | 0.00 | 0.06 | 0.05 | 79 | 1014.7 |
| 20260903233053 | 83 | 215 | 0.0 | 4.0 | 0.00 | 0.06 | 0.05 | 77 | 1015.3 |
| 20260903231559 | 84 | 198 | 1.0 | 4.0 | 0.00 | 0.06 | 0.05 | 75 | 1014.8 |
| 20260903230055 | 85 | 0 | 0.0 | 2.0 | 0.00 | 0.06 | 0.05 | 72 | 1014.1 |
| 20260903224622 | 86 | 0 | 0.0 | 1.0 | 0.00 | 0.06 | 0.05 | 71 | 1013.9 |
| 20260903223057 | 88 | 0 | 0.0 | 1.0 | 0.00 | 0.06 | 0.05 | 68 | 1013.9 |
| 20260903221552 | 88 | 0 | 0.0 | 3.0 | 0.00 | 0.06 | 0.05 | 66 | 1014.1 |
| 20260903214606 | 91 | 234 | 2.0 | 5.0 | 0.00 | 0.06 | 0.05 | 58 | 1013.6 |
| 20260903213102 | 92 | 212 | 1.0 | 6.0 | 0.01 | 0.06 | 0.05 | 57 | 1013.6 |
| 20260903211555 | 91 | 223 | 3.0 | 10.0 | 0.01 | 0.06 | 0.05 | 59 | 1013.8 |
| 20260903210122 | 91 | 238 | 2.0 | 9.0 | 0.01 | 0.06 | 0.05 | 58 | 1013.8 |
| 20260903204551 | 92 | 262 | 4.0 | 9.0 | 0.00 | 0.06 | 0.04 | 58 | 1013.8 |
| 20260903203111 | 91 | 160 | 1.0 | 9.0 | 0.00 | 0.06 | 0.04 | 59 | 1014.1 |
| 20260903201554 | 90 | 242 | 3.0 | 11.0 | 0.00 | 0.06 | 0.04 | 61 | 1014.4 |
| 20260903200055 | 89 | 83 | 3.0 | 9.0 | 0.00 | 0.06 | 0.04 | 61 | 1014.5 |
| 20260903194550 | 88 | 241 | 5.0 | 11.0 | 0.00 | 0.06 | 0.04 | 63 | 1014.8 |
| 20260903193057 | 87 | 250 | 5.0 | 17.0 | 0.00 | 0.06 | 0.04 | 63 | 1015.1 |
| 20260903191551 | 86 | 229 | 8.0 | 17.0 | 0.00 | 0.06 | 0.04 | 64 | 1015.4 |
| 20260903184601 | 86 | 149 | 5.0 | 17.0 | 0.01 | 0.07 | 0.04 | 67 | 1015.9 |
| 20260903183053 | 85 | 221 | 4.0 | 13.0 | 0.01 | 0.07 | 0.04 | 67 | 1016.0 |
| 20260903181601 | 84 | 212 | 4.0 | 11.0 | 0.01 | 0.07 | 0.04 | 70 | 1016.1 |
| 20260903180056 | 81 | 149 | 2.0 | 16.0 | 0.01 | 0.07 | 0.04 | 74 | 1016.3 |
| 20260903174554 | 80 | 230 | 7.0 | 16.0 | 0.00 | 0.06 | 0.03 | 74 | 1016.5 |
| 20260903173050 | 79 | 316 | 3.0 | 12.0 | 0.00 | 0.06 | 0.03 | 78 | 1016.7 |
| 20260903171559 | 78 | 143 | 3.0 | 8.0 | 0.00 | 0.06 | 0.03 | 79 | 1017.0 |
| 20260903170055 | 76 | 144 | 4.0 | 8.0 | 0.00 | 0.06 | 0.03 | 82 | 1017.1 |
| 20260903164550 | 75 | 236 | 3.0 | 9.0 | 0.00 | 0.07 | 0.03 | 84 | 1017.3 |
| 20260903163052 | 74 | 257 | 3.0 | 9.0 | 0.00 | 0.07 | 0.03 | 86 | 1017.8 |
| 20260903161558 | 74 | 219 | 1.0 | 8.0 | 0.01 | 0.07 | 0.03 | 88 | 1018.1 |
| 20260903160104 | 73 | 256 | 5.0 | 10.0 | 0.01 | 0.07 | 0.03 | 87 | 1018.5 |
| 20260903154605 | 73 | 268 | 3.0 | 10.0 | 0.01 | 0.08 | 0.03 | 89 | 1019.0 |
| 20260903153103 | 73 | 247 | 3.0 | 9.0 | 0.01 | 0.08 | 0.03 | 88 | 1019.0 |
| 20260903151601 | 73 | 234 | 3.0 | 9.0 | 0.00 | 0.07 | 0.02 | 90 | 1019.1 |
| 20260903150049 | 72 | 136 | 1.0 | 4.0 | 0.00 | 0.07 | 0.02 | 91 | 1019.3 |
| 20260903144603 | 71 | 15 | 2.0 | 4.0 | 0.00 | 0.08 | 0.02 | 93 | 1019.3 |
| 20260903143106 | 70 | 21 | 2.0 | 9.0 | 0.00 | 0.08 | 0.02 | 93 | 1019.2 |
| 20260903141601 | 70 | 25 | 4.0 | 14.0 | 0.00 | 0.08 | 0.02 | 92 | 1019.6 |
| 20260903140056 | 70 | 13 | 4.0 | 13.0 | 0.01 | 0.08 | 0.02 | 92 | 1020.2 |
| 20260903134552 | 70 | 28 | 2.0 | 10.0 | 0.01 | 0.10 | 0.02 | 92 | 1018.1 |
| 20260903133058 | 70 | 0 | 4.0 | 10.0 | 0.01 | 0.10 | 0.02 | 91 | 1018.8 |
| 20260903131605 | 71 | 17 | 3.0 | 8.0 | 0.01 | 0.10 | 0.02 | 91 | 1018.7 |
| 20260903124600 | 70 | 17 | 2.0 | 7.0 | 0.00 | 0.12 | 0.01 | 93 | 1018.3 |
| 20260903123053 | 70 | 15 | 4.0 | 7.0 | 0.00 | 0.12 | 0.01 | 93 | 1018.7 |
| 20260903121551 | 69 | 25 | 1.0 | 9.0 | 0.00 | 0.12 | 0.01 | 93 | 1018.8 |
| 20260903120050 | 69 | 34 | 3.0 | 8.0 | 0.01 | 0.12 | 0.01 | 93 | 1019.0 |
| 20260903114604 | 70 | 23 | 1.0 | 5.0 | 0.01 | 0.16 | 0.01 | 92 | 1019.1 |
| 20260903113053 | 71 | 35 | 1.0 | 16.0 | 0.01 | 0.16 | 0.01 | 89 | 1019.7 |
| 20260903111550 | 71 | 46 | 3.0 | 5.0 | 0.01 | 0.16 | 0.01 | 90 | 1020.1 |
| 20260903104557 | 70 | 350 | 0.0 | 8.0 | 0.00 | 0.20 | 0.00 | 94 | 1019.3 |
| 20260903103057 | 69 | 360 | 3.0 | 6.0 | 0.00 | 0.20 | 0.00 | 94 | 1019.2 |